User: anonymous   Login
Location: Beaurecueil
(43.5122°N, 5.5450°E)
Time: 10:53:34
(UTC+00:00)
Language:

Cosmos 1125 Rocket - Orbit

View from above orbital plane
View from above orbital plane
View from above satellite
View from above satellite

Ground track
Ground track

The orbit data is extracted from the following two-line orbital elements,

1 11511U 79078B   21166.91753078  .00000079  00000-0  35560-4 0  9995
2 11511  74.0345 151.9591 0014836  35.3651 324.8483 14.36929213187985
Epoch (UTC): 15 June 2021 22:01:14
Eccentricity: 0.0014836
inclination: 74.0345°
perigee height: 758 km
apogee height: 779 km
right ascension of ascending node: 151.9591°
argument of perigee: 35.3651°
revolutions per day: 14.36929213
mean anomaly at epoch: 324.8483°
orbit number at epoch: 18798

The dashed part of the orbit path shows where the satellite is in the earth's shadow,  

DLR